[[{"header":{"parameterUnit":"m.s-1","parameterCategory":2,"la1":30.2992,"la2":30.254,"lo1":-89.0895,"lo2":-89.0443,"dy":0.0025,"dx":0.0025,"nx":19,"ny":19,"refTime":"2026-04-07T21:00:00:Z","depth":"0","parameterNumber":2,"parameterNumberName":"U-component_of_CURRENTS"},"data":[0,0,0,0.1257,0.1259,0.1336,0.1336,0.1396,0.1397,0,0,0,0,0,0,0,0,0,0,0,0.1224,0.1224,0.1257,0.1259,0.1336,0.1336,0.1396,0.1397,0,0,0,0,0,0,0,0,0,0,0,0.1223,0.1224,0.1224,0.1259,0.1336,0.1336,0.1396,0.1347,0,0,0,0,0,0,0,0,0,0,0.1276,0.1246,0.1224,0.1225,0.126,0.1336,0.1336,0.1345,0.135,0.1351,0,0.1364,0,0.1386,0.14,0.14,0,0,0,0.1256,0.1242,0.1271,0.1225,0.126,0.1336,0.13,0.1348,0.1353,0.1358,0.1365,0.1368,0.1387,0.1401,0.1401,0.1468,0.1469,0,0,0.1251,0.123,0.1267,0.1274,0.128,0.1298,0.1303,0.1352,0.1352,0.1365,0.1369,0.1388,0.1401,0.1401,0.1468,0.1468,0,0,0,0.1241,0.1227,0.1255,0.1271,0.1291,0.13,0.1306,0.1349,0.1361,0.137,0.1388,0.1401,0.1402,0.1468,0.1468,0.15,0,0,0,0.1239,0.1222,0.1253,0.124,0.129,0.1325,0.1302,0.1358,0.1364,0.1388,0.1401,0.1402,0.1467,0.1468,0.1498,0.1524,0,0,0,0.122,0.122,0.1231,0.1239,0.1276,0.1325,0.134,0.136,0.1375,0.14,0.1402,0.1467,0.1468,0.1497,0.1521,0.1588,0,0,0,0.1193,0.1215,0.123,0.1263,0.1275,0.1339,0.134,0.138,0.1403,0.1401,0.1467,0.1468,0.1496,0.1519,0.1585,0.1661,0.1679,0,0,0.1208,0.1216,0.1239,0.1255,0.1315,0.1328,0.1387,0.1412,0.1416,0.1447,0.1449,0.1499,0.152,0.1587,0.171,0.1726,0,0,0,0.1236,0.1252,0.1273,0.1311,0.1355,0.14,0.1425,0.144,0.1476,0.1435,0.1507,0.152,0.1561,0.1602,0.1615,0.1656,0.1472,0.1472,0.1472,0.1221,0.126,0.1301,0.1353,0.1391,0.1449,0.1487,0.1513,0.1505,0.1525,0.1552,0.1632,0.1675,0.1686,0.1727,0.1552,0.1552,0.1552,0.1552,0.1248,0.1273,0.1321,0.1375,0.1426,0.1476,0.1546,0.1558,0.1631,0.1593,0.1632,0.164,0.1703,0.1741,0.1554,0.1554,0.1554,0.1554,0.1553,0.1241,0.1256,0.1294,0.1361,0.1424,0.1489,0.1577,0.1627,0.1666,0.1709,0.1779,0.1779,0.1811,0.1738,0.1738,0.1739,0.1739,0.174,0.174,0.1208,0.1247,0.1278,0.1346,0.1385,0.147,0.1598,0.1677,0.1801,0.1838,0.1839,0.1855,0.169,0.168,0.1746,0.1745,0.1744,0.1744,0.1743,0.1201,0.1207,0.1251,0.1286,0.1377,0.144,0.1584,0.1797,0.1898,0.198,0.2046,0.1916,0.1923,0.1912,0.1909,0.203,0.203,0.203,0.203,0.1177,0.1188,0.1226,0.1269,0.134,0.1427,0.1571,0.1772,0.2034,0.2151,0.2186,0.2151,0.2138,0.2154,0.2138,0.2138,0.2314,0.2314,0.2315,0.1168,0.1182,0.1196,0.1242,0.1316,0.1406,0.1513,0.1704,0.2111,0.2326,0.2232,0.222,0.2163,0.2139,0.2153,0.2127,0.2121,0,0]},{"header":{"parameterUnit":"m.s-1","parameterCategory":2,"la1":30.2992,"la2":30.254,"lo1":-89.0895,"lo2":-89.0443,"dy":0.0025,"dx":0.0025,"nx":19,"ny":19,"refTime":"2026-04-07T21:00:00:Z","depth":"0","parameterNumber":3,"parameterNumberName":"V-component_of_CURRENTS"},"data":[0,0,0,-0.0382,-0.0382,-0.041,-0.0411,-0.0482,-0.0482,0,0,0,0,0,0,0,0,0,0,0,-0.0372,-0.0372,-0.0382,-0.0382,-0.041,-0.0411,-0.0482,-0.0482,0,0,0,0,0,0,0,0,0,0,0,-0.0372,-0.0372,-0.0372,-0.0382,-0.041,-0.0411,-0.0481,-0.0454,0,0,0,0,0,0,0,0,0,0,-0.0423,-0.0402,-0.0372,-0.0372,-0.0383,-0.041,-0.0411,-0.0452,-0.0455,-0.0476,0,-0.0474,0,-0.0477,-0.0487,-0.0487,0,0,0,-0.0391,-0.0399,-0.0409,-0.0372,-0.0383,-0.041,-0.04,-0.0454,-0.0458,-0.0481,-0.0475,-0.0477,-0.0478,-0.0487,-0.0488,-0.0523,-0.0523,0,0,-0.039,-0.0379,-0.0406,-0.0411,-0.0382,-0.0399,-0.0401,-0.0456,-0.0456,-0.0475,-0.0479,-0.0479,-0.0488,-0.0488,-0.0524,-0.0523,0,0,0,-0.0379,-0.0378,-0.0386,-0.0408,-0.0409,-0.04,-0.0402,-0.0453,-0.0456,-0.0479,-0.048,-0.0488,-0.0489,-0.0524,-0.0523,-0.0468,0,0,0,-0.0379,-0.0371,-0.0385,-0.0379,-0.0407,-0.0425,-0.0398,-0.0453,-0.0459,-0.0479,-0.0488,-0.049,-0.0524,-0.0524,-0.047,-0.0416,0,0,0,-0.0373,-0.037,-0.0371,-0.0378,-0.0386,-0.0424,-0.0431,-0.0454,-0.0459,-0.0487,-0.049,-0.0524,-0.0524,-0.0472,-0.042,-0.0371,0,0,0,-0.0364,-0.0342,-0.0371,-0.035,-0.0386,-0.0388,-0.043,-0.0441,-0.046,-0.0489,-0.0524,-0.0523,-0.0472,-0.0423,-0.0374,-0.0252,-0.0229,0,0,-0.0328,-0.0338,-0.0325,-0.0351,-0.0333,-0.0386,-0.038,-0.0426,-0.0465,-0.0511,-0.0511,-0.047,-0.0421,-0.0372,-0.0233,-0.0211,0,0,0,-0.0308,-0.0298,-0.0298,-0.0297,-0.0316,-0.0329,-0.0381,-0.0409,-0.0448,-0.0473,-0.0478,-0.0449,-0.042,-0.0353,-0.0335,-0.0413,-0.0522,-0.0522,-0.0522,-0.024,-0.0253,-0.0229,-0.0247,-0.0254,-0.0297,-0.0315,-0.0365,-0.0418,-0.0427,-0.0412,-0.0343,-0.0273,-0.0258,-0.0341,-0.0437,-0.0437,-0.0437,-0.0436,-0.0177,-0.0159,-0.0179,-0.016,-0.0186,-0.0193,-0.0254,-0.0294,-0.0313,-0.0371,-0.0346,-0.0307,-0.0235,-0.033,-0.0433,-0.0434,-0.0434,-0.0434,-0.0435,-0.0129,-0.0121,-0.0117,-0.0094,-0.0084,-0.0124,-0.009,-0.0163,-0.0236,-0.0222,-0.0148,-0.0148,-0.0222,-0.021,-0.021,-0.0209,-0.0209,-0.0209,-0.0208,-0.008,-0.0075,-0.0039,-0.0025,0.0001,0.003,0.0008,0.0014,-0.0001,-0.0052,-0.0052,-0.0198,-0.0274,-0.0272,-0.0201,-0.0203,-0.0203,-0.0204,-0.0205,-0.0016,-0.0016,0.0044,0.0077,0.0147,0.0249,0.0221,0.0288,0.0259,0.0283,0.0045,0.0031,0.0034,0.002,0.0029,0.0173,0.0173,0.0173,0.0173,0.0033,0.0033,0.0128,0.02,0.0293,0.0353,0.0542,0.0564,0.0395,0.0283,0.0152,0.0101,0.0089,0.0089,0.0074,0.008,0.0234,0.0234,0.0233,0.0083,0.0104,0.0188,0.0253,0.036,0.0503,0.071,0.0809,0.0506,0.0219,0.0019,0.0016,-0.0083,-0.0095,-0.012,-0.0136,-0.0135,0,0]}],[{"header":{"parameterUnit":"m.s-1","parameterCategory":2,"la1":30.2992,"la2":30.254,"lo1":-89.0895,"lo2":-89.0443,"dy":0.0025,"dx":0.0025,"nx":19,"ny":19,"refTime":"2026-04-07T21:00:00:Z","depth":"2","parameterNumber":2,"parameterNumberName":"U-component_of_CURRENTS"},"data":[0,0,0,0.1419,0.1421,0.1481,0.1481,0.1545,0.1546,0,0,0,0,0,0,0,0,0,0,0,0.1397,0.1397,0.1419,0.1421,0.1481,0.1481,0.1545,0.1546,0,0,0,0,0,0,0,0,0,0,0,0.1397,0.1397,0.1398,0.1421,0.1481,0.1481,0.1545,0.1503,0,0,0,0,0,0,0,0,0,0,0.1446,0.1421,0.1397,0.1398,0.1421,0.1481,0.1481,0.1501,0.1506,0.1514,0,0.1523,0,0.1536,0.155,0.155,0,0,0,0.1422,0.1417,0.144,0.1398,0.1422,0.1481,0.1454,0.1504,0.1509,0.152,0.1524,0.1527,0.1537,0.155,0.155,0.1625,0.1625,0,0,0.1419,0.1402,0.1436,0.1443,0.1437,0.1452,0.1456,0.1507,0.1508,0.1524,0.1528,0.1538,0.1551,0.1551,0.1625,0.1625,0,0,0,0.1408,0.14,0.1422,0.144,0.1452,0.1454,0.1458,0.1506,0.1515,0.1529,0.1539,0.1551,0.1552,0.1624,0.1625,0.1655,0,0,0,0.1406,0.1394,0.142,0.141,0.1451,0.148,0.1455,0.1511,0.1518,0.1539,0.1551,0.1552,0.1624,0.1624,0.1653,0.1677,0,0,0,0.1394,0.1392,0.1401,0.1409,0.1436,0.148,0.1492,0.1513,0.1524,0.155,0.1552,0.1623,0.1624,0.1652,0.1674,0.174,0,0,0,0.1373,0.1391,0.14,0.1428,0.1435,0.1492,0.1492,0.1529,0.1553,0.1551,0.1624,0.1625,0.1651,0.1672,0.1738,0.1729,0.174,0,0,0.1386,0.1392,0.1411,0.1421,0.1475,0.1484,0.1542,0.1567,0.1569,0.1605,0.1607,0.1654,0.1674,0.174,0.1782,0.1791,0,0,0,0.141,0.1422,0.1441,0.1473,0.1513,0.1554,0.1579,0.1596,0.1632,0.1588,0.1664,0.1676,0.1717,0.1706,0.1714,0.1629,0.1629,0.1629,0.1629,0.1396,0.143,0.1467,0.1513,0.155,0.1605,0.1644,0.1671,0.1664,0.1684,0.1708,0.1788,0.1776,0.1782,0.171,0.171,0.171,0.171,0.171,0.1415,0.1437,0.1483,0.1529,0.158,0.1628,0.1702,0.1715,0.179,0.1752,0.179,0.1746,0.1793,0.1713,0.1712,0.1712,0.1712,0.1712,0.1711,0.1403,0.1418,0.1449,0.1509,0.157,0.1636,0.1723,0.1778,0.1821,0.1864,0.1876,0.1875,0.1821,0.1891,0.1891,0.1892,0.1892,0.1892,0.1893,0.1368,0.1403,0.1425,0.1488,0.1524,0.1606,0.1738,0.1814,0.1907,0.1925,0.1925,0.185,0.1844,0.1833,0.1899,0.1898,0.1897,0.1896,0.1896,0.1352,0.1355,0.1388,0.1417,0.1503,0.1549,0.1691,0.185,0.1954,0.2001,0.1968,0.1964,0.1964,0.1956,0.1949,0.2041,0.2041,0.2041,0.2041,0.1321,0.1332,0.1349,0.1383,0.1448,0.1523,0.1602,0.1733,0.1892,0.1934,0.1938,0.1867,0.1864,0.1853,0.1848,0.1836,0.1898,0.1898,0.1897,0.1303,0.1312,0.1308,0.1345,0.1411,0.1477,0.1493,0.1536,0.1711,0.1886,0.1859,0.2042,0.1945,0.1938,0.1924,0.1915,0.1897,0,0]},{"header":{"parameterUnit":"m.s-1","parameterCategory":2,"la1":30.2992,"la2":30.254,"lo1":-89.0895,"lo2":-89.0443,"dy":0.0025,"dx":0.0025,"nx":19,"ny":19,"refTime":"2026-04-07T21:00:00:Z","depth":"2","parameterNumber":3,"parameterNumberName":"V-component_of_CURRENTS"},"data":[0,0,0,-0.0252,-0.0252,-0.0273,-0.0273,-0.0339,-0.034,0,0,0,0,0,0,0,0,0,0,0,-0.0251,-0.0251,-0.0252,-0.0252,-0.0273,-0.0273,-0.0339,-0.034,0,0,0,0,0,0,0,0,0,0,0,-0.0251,-0.0251,-0.0251,-0.0252,-0.0273,-0.0273,-0.0339,-0.0317,0,0,0,0,0,0,0,0,0,0,-0.0293,-0.0277,-0.0251,-0.0251,-0.0252,-0.0273,-0.0273,-0.0316,-0.0318,-0.0337,0,-0.0335,0,-0.0331,-0.0344,-0.0344,0,0,0,-0.0266,-0.0274,-0.0281,-0.0251,-0.0252,-0.0273,-0.0267,-0.0317,-0.032,-0.0341,-0.0335,-0.0337,-0.0332,-0.0344,-0.0345,-0.0371,-0.0371,0,0,-0.0265,-0.0257,-0.0279,-0.0283,-0.0251,-0.0267,-0.0268,-0.0318,-0.0319,-0.0336,-0.0339,-0.0333,-0.0345,-0.0345,-0.0371,-0.0371,0,0,0,-0.0252,-0.0256,-0.0261,-0.0281,-0.0277,-0.0267,-0.0268,-0.0317,-0.0319,-0.0339,-0.0334,-0.0345,-0.0346,-0.0371,-0.0371,-0.0318,0,0,0,-0.0252,-0.0248,-0.026,-0.0256,-0.0275,-0.029,-0.0266,-0.0316,-0.0321,-0.0334,-0.0345,-0.0346,-0.0372,-0.0371,-0.032,-0.0274,0,0,0,-0.0251,-0.0248,-0.0248,-0.0256,-0.0258,-0.0289,-0.0294,-0.0317,-0.0317,-0.0344,-0.0347,-0.0372,-0.0371,-0.0321,-0.0277,-0.0233,0,0,0,-0.0246,-0.0227,-0.0248,-0.0226,-0.0258,-0.0255,-0.0293,-0.0304,-0.0324,-0.0345,-0.0372,-0.0371,-0.0322,-0.028,-0.0236,-0.0139,-0.012,0,0,-0.0215,-0.0223,-0.021,-0.0228,-0.0205,-0.0253,-0.024,-0.0286,-0.0325,-0.0361,-0.0361,-0.0319,-0.0278,-0.0234,-0.0116,-0.0097,0,0,0,-0.0196,-0.0184,-0.0182,-0.0175,-0.0187,-0.0192,-0.024,-0.0265,-0.0301,-0.0332,-0.0326,-0.0301,-0.0275,-0.0223,-0.0208,-0.0369,-0.0369,-0.0369,-0.0369,-0.0138,-0.0144,-0.0115,-0.0122,-0.0125,-0.0159,-0.0174,-0.0219,-0.0267,-0.0276,-0.0263,-0.0199,-0.0144,-0.0131,-0.0283,-0.0283,-0.0283,-0.0283,-0.0282,-0.0074,-0.0053,-0.0062,-0.0039,-0.0056,-0.0058,-0.0108,-0.0148,-0.0166,-0.0218,-0.0197,-0.0176,-0.0111,-0.0278,-0.0279,-0.028,-0.028,-0.028,-0.0281,-0.0027,-0.0017,-0.0008,0.0025,0.0038,0.0008,0.0042,-0.0026,-0.0097,-0.0087,-0.0031,-0.0031,-0.0148,-0.0076,-0.0076,-0.0075,-0.0075,-0.0075,-0.0074,0.0018,0.0028,0.0068,0.0091,0.0117,0.0149,0.0129,0.0136,0.0113,0.0055,0.0056,-0.0129,-0.0136,-0.0136,-0.0068,-0.0069,-0.007,-0.0071,-0.0071,0.0082,0.0081,0.0146,0.018,0.0253,0.0346,0.0322,0.0374,0.0348,0.0361,0.0131,0.0124,0.0123,0.0111,0.0116,0.0245,0.0245,0.0245,0.0245,0.0128,0.013,0.0225,0.0297,0.039,0.0442,0.0591,0.058,0.0467,0.0364,0.0359,0.0324,0.0309,0.0314,0.0297,0.0304,0.0482,0.0482,0.0483,0.0183,0.02,0.0283,0.0346,0.0451,0.0574,0.0718,0.0717,0.0553,0.0487,0.0345,0.0272,0.0203,0.0187,0.0176,0.0156,0.0159,0,0]}],[{"header":{"parameterUnit":"m.s-1","parameterCategory":2,"la1":30.2992,"la2":30.254,"lo1":-89.0895,"lo2":-89.0443,"dy":0.0025,"dx":0.0025,"nx":19,"ny":19,"refTime":"2026-04-07T21:00:00:Z","depth":"4","parameterNumber":2,"parameterNumberName":"U-component_of_CURRENTS"},"data":[0,0,0,0.098,0.0982,0.1087,0.1087,0.1181,0.1181,0,0,0,0,0,0,0,0,0,0,0,0.0948,0.0949,0.098,0.0983,0.1087,0.1087,0.118,0.1181,0,0,0,0,0,0,0,0,0,0,0,0.0948,0.0949,0.095,0.0983,0.1087,0.1088,0.118,0.1111,0,0,0,0,0,0,0,0,0,0,0.1015,0.0996,0.0949,0.095,0.0984,0.1087,0.1088,0.1108,0.1116,0.1122,0,0.1147,0,0.1164,0.1187,0.1187,0,0,0,0.0982,0.099,0.1014,0.095,0.0985,0.1087,0.104,0.1113,0.1121,0.1131,0.1148,0.1152,0.1166,0.1187,0.1188,0.1277,0.1277,0,0,0.0976,0.097,0.1008,0.1019,0.1022,0.1036,0.1043,0.1118,0.1133,0.1148,0.1154,0.1168,0.1188,0.1188,0.1277,0.1277,0,0,0,0.096,0.0966,0.0989,0.1015,0.1036,0.1039,0.1047,0.113,0.1136,0.1155,0.1169,0.1188,0.1189,0.1276,0.1277,0.1315,0,0,0,0.0956,0.0957,0.0986,0.0984,0.1035,0.1091,0.1057,0.1131,0.114,0.1168,0.1188,0.119,0.1276,0.1276,0.1313,0.1307,0,0,0,0.0941,0.0955,0.0969,0.0983,0.1028,0.1091,0.1102,0.1134,0.1148,0.1187,0.119,0.1275,0.1276,0.1311,0.1305,0.1334,0,0,0,0.0927,0.095,0.097,0.0999,0.1027,0.1083,0.1102,0.1156,0.119,0.1189,0.1276,0.1277,0.1311,0.1304,0.1332,0.1206,0,0,0,0.0941,0.0952,0.0966,0.0985,0.1025,0.1068,0.1126,0.1183,0.1205,0.1247,0.125,0.1314,0.1305,0.1334,0.126,0,0,0,0,0.0959,0.0973,0.0989,0.1021,0.1061,0.1115,0.1172,0.1209,0.1279,0.123,0.1321,0.1314,0.1331,0.1253,0.1281,0.1281,0.1281,0.1281,0.1281,0.096,0.0976,0.1004,0.1038,0.1081,0.1157,0.1209,0.127,0.1295,0.1338,0.1352,0.1405,0.1326,0.1371,0.1371,0.1372,0.1372,0.1372,0.1372,0.0964,0.0969,0.1013,0.105,0.1105,0.1169,0.1264,0.1306,0.1391,0.1393,0.1409,0.1307,0.1376,0.1375,0.1375,0.1374,0.1374,0.1373,0.1373,0.0942,0.0947,0.0984,0.1037,0.1108,0.1189,0.1269,0.1347,0.1412,0.1443,0.1373,0.1428,0.1417,0.1469,0.1469,0.1469,0.1469,0.1469,0.1469,0.0896,0.093,0.0962,0.1028,0.1074,0.1155,0.1283,0.1342,0.1419,0.1387,0.146,0.1437,0.1434,0.1422,0.1471,0.1471,0.1471,0.1471,0.147,0.0856,0.0884,0.092,0.0962,0.1047,0.1087,0.1221,0.1304,0.1353,0.1357,0.1358,0.1363,0.1333,0.1332,0.1315,0.1335,0.1333,0.1332,0,0.0826,0.0841,0.0887,0.0927,0.0965,0.1044,0.109,0.1176,0.1248,0.1204,0.1345,0.134,0.1344,0.1306,0.1304,0.1281,0,0,0,0.0803,0.0823,0.084,0.0887,0.0922,0.099,0.1095,0.1103,0.1224,0.126,0.1295,0.1305,0.1425,0.1477,0.1443,0.1439,0.1418,0,0]},{"header":{"parameterUnit":"m.s-1","parameterCategory":2,"la1":30.2992,"la2":30.254,"lo1":-89.0895,"lo2":-89.0443,"dy":0.0025,"dx":0.0025,"nx":19,"ny":19,"refTime":"2026-04-07T21:00:00:Z","depth":"4","parameterNumber":3,"parameterNumberName":"V-component_of_CURRENTS"},"data":[0,0,0,0.0072,0.0071,0.003,0.003,0.0021,0.0021,0,0,0,0,0,0,0,0,0,0,0,0.0094,0.0093,0.0072,0.0071,0.003,0.003,0.0021,0.0021,0,0,0,0,0,0,0,0,0,0,0,0.0094,0.0093,0.0093,0.0071,0.0031,0.003,0.0021,0.0042,0,0,0,0,0,0,0,0,0,0,0.0077,0.009,0.0093,0.0093,0.0071,0.0031,0.003,0.0043,0.0041,0.005,0,0.0043,0,0.0027,0.0021,0.0021,0,0,0,0.0076,0.0091,0.0077,0.0093,0.007,0.0031,0.005,0.0041,0.0039,0.0047,0.0043,0.0042,0.0027,0.0021,0.0021,0.005,0.005,0,0,0.0078,0.009,0.0078,0.0076,0.006,0.0051,0.0049,0.004,0.0041,0.0043,0.0041,0.0027,0.0021,0.002,0.0049,0.005,0,0,0,0.0081,0.0091,0.0077,0.0077,0.0063,0.005,0.0047,0.0041,0.0035,0.0041,0.0027,0.002,0.002,0.0049,0.005,0.0101,0,0,0,0.0083,0.0092,0.0078,0.0085,0.0063,0.0045,0.0049,0.0036,0.0034,0.0027,0.002,0.002,0.0049,0.0049,0.0099,0.013,0,0,0,0.0095,0.0094,0.0088,0.0085,0.0064,0.0045,0.0039,0.0035,0.0025,0.0021,0.002,0.0048,0.0049,0.0097,0.0126,0.0123,0,0,0,0.0109,0.0111,0.0089,0.0097,0.0064,0.0074,0.0038,0.004,0.004,0.002,0.0049,0.0049,0.0096,0.0124,0.0121,0.012,0,0,0,0.0121,0.0113,0.0121,0.01,0.0121,0.008,0.0108,0.0084,0.0055,0.0055,0.0055,0.01,0.0126,0.0123,0.0167,0,0,0,0,0.0133,0.0138,0.0142,0.0147,0.0144,0.0149,0.0122,0.0112,0.01,0.0056,0.0102,0.0117,0.0112,0.0107,0.0053,0.0053,0.0053,0.0053,0.0053,0.0155,0.0164,0.0188,0.0197,0.0208,0.02,0.0204,0.0184,0.0149,0.0149,0.016,0.0196,0.0194,0.0156,0.0156,0.0156,0.0156,0.0156,0.0157,0.0186,0.0204,0.0226,0.0249,0.0263,0.0283,0.0279,0.0255,0.0247,0.0213,0.0205,0.0165,0.0162,0.0161,0.016,0.0159,0.0159,0.0159,0.0158,0.0204,0.0215,0.0231,0.0277,0.0314,0.0324,0.0357,0.0338,0.0294,0.03,0.0254,0.0225,0.0217,0.0276,0.0276,0.0276,0.0277,0.0277,0.0277,0.021,0.023,0.026,0.0304,0.0336,0.0377,0.0394,0.0387,0.0345,0.0319,0.0301,0.0236,0.0232,0.0223,0.0279,0.0279,0.0278,0.0278,0.0278,0.023,0.0234,0.028,0.0314,0.039,0.042,0.0439,0.0414,0.0397,0.0359,0.0317,0.0314,0.029,0.0284,0.0276,0.0349,0.0349,0.035,0,0.0238,0.0245,0.0302,0.0358,0.042,0.0451,0.0456,0.0441,0.0382,0.038,0.0375,0.0329,0.0326,0.0298,0.0294,0.0285,0,0,0,0.0252,0.0267,0.0308,0.0363,0.0434,0.0452,0.046,0.0443,0.0401,0.0376,0.0354,0.0353,0.0316,0.0285,0.0241,0.0236,0.0219,0,0]}]]